This is the latest recevied weather packets stored in our database for station/object WS2Z. If no packets are shown the sender has not sent any weather packets the latest 10 day(s).
| Time | Temp. | Humidity | Pressure | Rain* | Wind** | Luminosity | Snow |
|---|---|---|---|---|---|---|---|
| 1777376900 | 18.89° C | 95% | 1019 hPa | 0 mm | - | 46 W/m² | - |
| 1777376596 | 18.89° C | 95% | 1019 hPa | 0 mm | - | 41 W/m² | - |
| 1777376294 | 18.89° C | 95% | 1019 hPa | 0 mm | - | 32 W/m² | - |
| 1777375989 | 18.89° C | 95% | 1018.7 hPa | 0 mm | - | 23 W/m² | - |
| 1777375687 | 18.89° C | 95% | 1018.8 hPa | 0 mm | - | 19 W/m² | - |
| 1777375382 | 18.89° C | 95% | 1018.7 hPa | 0 mm | - | 19 W/m² | - |
| 1777375080 | 18.89° C | 96% | 1018.8 hPa | 0 mm | - | 17 W/m² | - |
| 1777374779 | 18.89° C | 95% | 1018.5 hPa | 0 mm | - | 13 W/m² | - |
| 1777374476 | 18.89° C | 95% | 1018.4 hPa | 0 mm | - | 9 W/m² | - |
| 1777374174 | 18.89° C | 95% | 1018.4 hPa | 0 mm | - | 6 W/m² | - |
| 1777373869 | 18.89° C | 96% | 1018.4 hPa | 0 mm | - | 4 W/m² | - |
| 1777373566 | 18.89° C | 96% | 1018.3 hPa | 0 mm | - | 2 W/m² | - |
| 1777373262 | 18.89° C | 95% | 1018.3 hPa | 0 mm | - | 1 W/m² | - |
| 1777372958 | 18.89° C | 96% | 1018.3 hPa | 0 mm | - | 0 W/m² | - |
| 1777372653 | 18.89° C | 96% | 1018.2 hPa | 0 mm | - | 0 W/m² | - |
| 1777372353 | 18.89° C | 96% | 1017.9 hPa | 0 mm | - | 0 W/m² | - |
| 1777372051 | 18.89° C | 96% | 1018 hPa | 0 mm | - | 0 W/m² | - |
| 1777371747 | 18.89° C | 96% | 1017.9 hPa | 0 mm | - | 0 W/m² | - |
| 1777371444 | 18.89° C | 96% | 1017.8 hPa | 0 mm | - | 0 W/m² | - |
| 1777371140 | 18.89° C | 96% | 1017.6 hPa | 0 mm | - | 0 W/m² | - |
| 1777370837 | 18.89° C | 96% | 1017.6 hPa | 0 mm | - | 0 W/m² | - |
| 1777370533 | 19.44° C | 95% | 1017.6 hPa | 0 mm | - | 0 W/m² | - |
| 1777370229 | 19.44° C | 96% | 1017.4 hPa | 0 mm | - | 0 W/m² | - |
| 1777369925 | 19.44° C | 95% | 1017.5 hPa | 0 mm | - | 0 W/m² | - |
| 1777369621 | 19.44° C | 95% | 1017.3 hPa | 0 mm | - | 0 W/m² | - |
* Rain latest hour (hover to see other rain measurements)
** Current wind speed in m/s (hover to see current wind gust speed)